Durango, Mexico

7:28 AM EST on February 10, 2016 (GMT -0500)
Durango

Weather History for MMDO - January, 2013

Change the Weather History Date:

Wednesday, January 16, 2013

  Actual Average Record
Temperature  
Mean Temperature 42 °F -  
Max Temperature 57 °F 71 °F 77 °F (2006)
Min Temperature 27 °F 35 °F 10 °F (2003)
Degree Days  
Heating Degree Days 23    
Moisture  
Dew Point 8 °F    
Average Humidity 26    
Maximum Humidity 47    
Minimum Humidity 10    
Precipitation  
Precipitation 0.00 in - - ()
Sea Level Pressure  
Sea Level Pressure 30.30 in    
Wind  
Wind Speed 3 mph ()    
Max Wind Speed 13 mph    
Max Gust Speed -    
Visibility 11.9 miles    
Events      
Averages and records for this station are not official NWS values.
T = Trace of Precipitation, MM = Missing Value Source: Averaged Metar Reports

Daily Weather History Graph

Daily Weather History Graph

Search for Another Location

Airport or City:

Trip Planner

Search our weather history database for the weather conditions in past years. The results will help you decide how hot, cold, wet, or windy it might be!

Date:

Astronomy

Jan. 16, 2013 Rise Set
Actual Time 7:43 AM CST 6:33 PM CST
Civil Twilight 7:18 AM CST 6:57 PM CST
Nautical Twilight 6:51 AM CST 7:25 PM CST
Astronomical Twilight 6:23 AM CST 7:52 PM CST
Moon 11:01 AM CST (1/16) 11:42 PM CST (1/16)
Length of Visible Light 11h 38m
Length of Day
10h 49m
Waxing Crescent, 28% of the Moon is Illuminated
Jan 16
Waxing Crescent
Jan 18
First Quarter
Jan 26
Full
Feb 3
Last Quarter
Feb 10
New

Hourly Weather History & Observations

Time (CST) Temp. Windchill Dew Point Humidity Pressure Visibility Wind Dir Wind Speed Gust Speed Precip Events Conditions
2:55 AM 41 °F - 22 °F 34% 29.98 in 6 mi ESE 2.2 mph - -   Clear
5:55 AM 32 °F - 14 °F 33% 30.19 in 6 mi Calm Calm - -  
5:59 AM 30.2 °F 25.4 °F 8.6 °F 40% 30.19 in 8.0 mi North 4.6 mph - N/A   Scattered Clouds
6:46 AM 26.6 °F - 8.6 °F 47% 30.36 in 8.0 mi ESE 2.3 mph - N/A   Scattered Clouds
7:50 AM 26.6 °F 21.2 °F 8.6 °F 47% 30.40 in 10.0 mi West 4.6 mph - N/A   Mostly Cloudy
8:51 AM 26.6 °F - 6.8 °F 43% 30.40 in 14.0 mi Calm Calm - N/A   Mostly Cloudy
8:59 AM 29 °F - 11 °F 33% 30.35 in 19 mi NE 2.2 mph - -   Overcast
9:45 AM 32.0 °F - 6.8 °F 35% 30.44 in 14.0 mi WNW 2.3 mph - N/A   Mostly Cloudy
10:44 AM 33.8 °F - 6.8 °F 32% 30.43 in 14.0 mi Calm Calm - N/A   Mostly Cloudy
11:40 AM 38 °F - 23 °F 43% 30.40 in 19 mi SSW 2.2 mph - -   Scattered Clouds
11:46 AM 39.2 °F - 6.8 °F 26% 30.33 in 14.0 mi West 2.3 mph - N/A   Mostly Cloudy
12:43 PM 42.8 °F 41.1 °F 6.8 °F 23% 30.36 in 14.0 mi NE 3.5 mph - N/A   Mostly Cloudy
1:41 PM 46.4 °F 44.3 °F 6.8 °F 20% 30.34 in 14.0 mi WNW 4.6 mph - N/A   Scattered Clouds
2:40 PM 52 °F - 22 °F 19% 30.28 in 25 mi SE 4.5 mph - -   Clear
2:45 PM 50.0 °F - 1.4 °F 14% 30.30 in 14.0 mi NNE 8.1 mph - N/A   Mostly Cloudy
3:50 PM 51.8 °F - -0.4 °F 12% 30.27 in 14.0 mi North 6.9 mph - N/A   Scattered Clouds
4:45 PM 53.6 °F - -2.2 °F 10% 30.28 in 14.0 mi North 9.2 mph - N/A   Mostly Cloudy
5:40 PM 54 °F - 19 °F 14% 30.20 in 25 mi NE 4.5 mph - -   Scattered Clouds
5:43 PM 51.8 °F - 1.4 °F 13% 30.30 in 14.0 mi NNE 12.7 mph - N/A   Mostly Cloudy
6:44 PM 44.6 °F 40.2 °F -0.4 °F 15% 30.32 in 14.0 mi NNE 8.1 mph - N/A   Scattered Clouds
7:40 PM 41.0 °F 38.0 °F -0.4 °F 18% 30.35 in 8.0 mi North 4.6 mph - N/A   Scattered Clouds
8:40 PM 43 °F - 15 °F 19% 30.22 in 6 mi NE 4.5 mph - -   Clear
11:58 PM 35 °F - 2 °F 13% 30.25 in 6 mi Calm Calm - -